Aeroporto :







RITROVATECI SU...

 
LOGIN :

Iscrizione | Disclaimer

   EN    FR    IT 

 









Sommario :    VFR   VFR Marginale   IFR   IFR Intensivo   IFR Molto Intensivo
Visibilità : 
Base nubi : 
>= 8 km
>= 3000ft
5 / 8 km
1000 / 3000 ft
1500m / 5 km
500 / 1000 ft
800 / 1500m
200 / 500 ft
< 800m
< 200 ft
Simboli :   Temporali  Nebbia  Neve Forte  Precipitazioni Forti  Vento > 20 kt






- Altitudine del aeroporto : 288 ft


KLEW - Auburn Lewiston Municipal

ULTIMO METAR :
  • 121956Z AUTO 25008KT 10SM FEW044 BKN075 29/21 A2956 RMK AO2 SLP014 T02940211

METARs OBSOLETI :
  • 121856Z AUTO 26010G15KT 10SM CLR 30/21 A2955 RMK AO2 SLP009 T03000211
  • 121756Z AUTO 23011KT 200V270 10SM FEW037 SCT050 SCT065 29/22 A2955 RMK AO2 SLP008 T02940217 10294 20233 51003

TAF N/A
FIR KZBW / America del Nord



MetMap, La meteo Aeronautica in un colpo d'occhio ! - Copyright ORBIFLY Dicembre 2007 - Disclaimer

ORBIFLY MET'MAP TEAM :

Programmazione e sviluppo : Alexandra Zaïnal
Concezione : Baudouin d'Aumeries
Aiuto per la programmazione : Marc-Olivier Méhu
Supporto tecnico e logistico : Manuel Goepfert
Aiuto per la traduzione : Arnaldo La Scala

Contatto : metmap@orbifly.com




FONTI E CREDITI :

   NOAA